DL9GJ-6 Weather Reports


Display with metric or nautical units.
time (UTC)temp
F
wind
direction
speed
MPH
gust
MPH
rain 1hr
in
rain 24hr
in
rain mn
in
humidity
%
barometer
mb
20210730140449 82 246 5.0 9.0 0.00 0.00 0.00 53 1007.5
20210730140327 82 246 5.0 9.0 0.00 0.00 0.00 53 1007.5
20210730135850 82 244 5.0 11.0 0.00 0.00 0.00 54 1007.5
20210730135727 82 244 5.0 11.0 0.00 0.00 0.00 54 1007.5
20210730135249 82 242 3.0 8.0 0.00 0.00 0.00 56 1007.5
20210730135128 82 242 3.0 8.0 0.00 0.00 0.00 56 1007.5
20210730134650 82 261 5.0 10.0 0.00 0.00 0.00 54 1007.7
20210730134529 82 261 5.0 10.0 0.00 0.00 0.00 54 1007.7
20210730134049 82 292 6.0 10.0 0.00 0.00 0.00 55 1007.8
20210730133929 82 256 6.0 11.0 0.00 0.00 0.00 54 1007.8
20210730133450 82 292 6.0 10.0 0.00 0.00 0.00 54 1007.9
20210730132849 82 229 5.0 8.0 0.00 0.00 0.00 55 1008.0
20210730132250 82 161 6.0 10.0 0.00 0.00 0.00 55 1008.2
20210730131650 82 254 6.0 10.0 0.00 0.00 0.00 55 1008.3
20210730131528 82 254 6.0 10.0 0.00 0.00 0.00 55 1008.3
20210730131051 82 264 6.0 9.0 0.00 0.00 0.00 54 1008.4
20210730130928 82 271 2.0 11.0 0.00 0.00 0.00 55 1008.5
20210730130450 82 207 5.0 8.0 0.00 0.00 0.00 57 1008.6
20210730130327 82 207 5.0 8.0 0.00 0.00 0.00 57 1008.6
20210730125850 81 188 2.0 8.0 0.00 0.00 0.00 59 1008.7
20210730125251 80 260 6.0 13.0 0.00 0.00 0.00 57 1008.9
20210730125129 80 260 6.0 13.0 0.00 0.00 0.00 57 1008.9
20210730124650 81 251 5.0 10.0 0.00 0.00 0.00 55 1009.0
20210730124527 81 251 5.0 10.0 0.00 0.00 0.00 55 1009.0
20210730124051 81 207 1.0 11.0 0.00 0.00 0.00 57 1009.1
20210730123929 81 232 7.0 10.0 0.00 0.00 0.00 56 1009.1
20210730123450 81 220 7.0 10.0 0.00 0.00 0.00 56 1009.2
20210730123330 81 220 7.0 10.0 0.00 0.00 0.00 56 1009.2
20210730122850 81 263 4.0 9.0 0.00 0.00 0.00 58 1009.0
20210730122728 81 263 4.0 9.0 0.00 0.00 0.00 58 1009.0
20210730122250 81 227 3.0 6.0 0.00 0.00 0.00 56 1009.1
20210730122129 81 227 3.0 6.0 0.00 0.00 0.00 56 1009.1
20210730121650 81 292 4.0 8.0 0.00 0.00 0.00 57 1009.1
20210730121050 81 213 3.0 10.0 0.00 0.00 0.00 56 1009.2
20210730120929 81 263 6.0 11.0 0.00 0.00 0.00 54 1009.2
20210730120450 80 256 2.0 6.0 0.00 0.00 0.00 56 1009.3
20210730120328 80 256 2.0 6.0 0.00 0.00 0.00 56 1009.3
20210730115850 81 273 3.0 8.0 0.00 0.00 0.00 53 1009.4
20210730115727 81 273 3.0 8.0 0.00 0.00 0.00 53 1009.4
20210730115252 81 221 4.0 6.0 0.00 0.00 0.00 54 1009.4
20210730115129 81 221 4.0 6.0 0.00 0.00 0.00 54 1009.4
20210730114650 81 174 2.0 7.0 0.00 0.00 0.00 54 1009.5
20210730114529 81 174 2.0 7.0 0.00 0.00 0.00 54 1009.5
20210730114050 81 159 5.0 8.0 0.00 0.00 0.00 55 1009.5
20210730113928 81 180 3.0 9.0 0.00 0.00 0.00 57 1009.6
20210730113451 80 306 1.0 4.0 0.00 0.00 0.00 58 1009.5
20210730113328 80 306 1.0 4.0 0.00 0.00 0.00 58 1009.5
20210730112851 80 261 6.0 10.0 0.00 0.00 0.00 55 1009.6
20210730112250 80 263 4.0 6.0 0.00 0.00 0.00 55 1009.6
20210730112128 80 263 4.0 6.0 0.00 0.00 0.00 55 1009.6
20210730111651 80 194 2.0 7.0 0.00 0.00 0.00 58 1009.7
20210730111527 80 194 2.0 7.0 0.00 0.00 0.00 58 1009.7
20210730111050 80 315 4.0 8.0 0.00 0.00 0.00 55 1009.7
20210730110927 80 279 1.0 9.0 0.00 0.00 0.00 58 1009.7
20210730110450 80 173 1.0 7.0 0.00 0.00 0.00 56 1009.8
20210730110329 80 173 1.0 7.0 0.00 0.00 0.00 56 1009.8
20210730105850 79 180 1.0 5.0 0.00 0.00 0.00 58 1009.9
20210730105728 79 180 1.0 5.0 0.00 0.00 0.00 58 1009.9
20210730105251 79 257 3.0 5.0 0.00 0.00 0.00 58 1009.9
20210730105127 79 257 3.0 5.0 0.00 0.00 0.00 58 1009.9
20210730104651 79 309 3.0 6.0 0.00 0.00 0.00 59 1010.1
20210730104529 79 309 3.0 6.0 0.00 0.00 0.00 59 1010.1
20210730104051 78 244 1.0 7.0 0.00 0.00 0.00 60 1010.1
20210730103928 78 286 1.0 8.0 0.00 0.00 0.00 59 1010.2
20210730103413 78 254 5.0 7.0 0.00 0.00 0.00 59 1010.3
20210730103328 78 254 5.0 7.0 0.00 0.00 0.00 59 1010.3
20210730102814 78 207 4.0 7.0 0.00 0.00 0.00 60 1010.4
20210730102728 78 207 4.0 7.0 0.00 0.00 0.00 60 1010.4
20210730102213 78 192 1.0 8.0 0.00 0.00 0.00 60 1010.4
20210730102128 78 192 1.0 8.0 0.00 0.00 0.00 60 1010.4
20210730101614 78 252 4.0 8.0 0.00 0.00 0.00 62 1010.5
20210730101527 78 252 4.0 8.0 0.00 0.00 0.00 62 1010.5
20210730101013 77 243 1.0 6.0 0.00 0.00 0.00 60 1010.5
20210730100951 77 258 2.0 6.0 0.00 0.00 0.00 59 1010.8
20210730100929 77 227 1.0 9.0 0.00 0.00 0.00 63 1010.6
20210730100414 77 272 1.0 11.0 0.00 0.00 0.00 61 1010.8
20210730100328 77 272 1.0 11.0 0.00 0.00 0.00 61 1010.8
20210730095813 77 258 2.0 6.0 0.00 0.00 0.00 59 1010.8
20210730095727 77 258 2.0 6.0 0.00 0.00 0.00 59 1010.8
20210730095214 76 252 2.0 8.0 0.00 0.00 0.00 63 1010.9
20210730095129 76 252 2.0 8.0 0.00 0.00 0.00 63 1010.9
20210730094613 76 240 2.0 7.0 0.00 0.00 0.00 63 1010.9
20210730094528 76 240 2.0 7.0 0.00 0.00 0.00 63 1010.9
20210730094114 76 263 6.0 9.0 0.00 0.00 0.00 60 1011.0
20210730094013 76 250 4.0 8.0 0.00 0.00 0.00 63 1010.9
20210730093932 76 263 6.0 9.0 0.00 0.00 0.00 60 1011.0
20210730093413 76 273 1.0 6.0 0.00 0.00 0.00 62 1011.1
20210730093327 76 273 1.0 6.0 0.00 0.00 0.00 62 1011.1
20210730092813 76 176 2.0 6.0 0.00 0.00 0.00 62 1011.1
20210730092727 76 176 2.0 6.0 0.00 0.00 0.00 62 1011.1
20210730092213 76 259 4.0 8.0 0.00 0.00 0.00 64 1011.2
20210730092127 76 259 4.0 8.0 0.00 0.00 0.00 64 1011.2
20210730091614 75 203 2.0 6.0 0.00 0.00 0.00 65 1011.1
20210730091528 75 203 2.0 6.0 0.00 0.00 0.00 65 1011.1
20210730091044 75 294 2.0 4.0 0.00 0.00 0.00 64 1011.0
20210730091013 75 255 2.0 6.0 0.00 0.00 0.00 64 1011.1
20210730090927 75 294 2.0 4.0 0.00 0.00 0.00 64 1011.0
20210730090414 74 192 2.0 5.0 0.00 0.00 0.00 64 1011.1
20210730090328 74 192 2.0 5.0 0.00 0.00 0.00 64 1011.1
20210730085814 74 273 3.0 7.0 0.00 0.00 0.00 64 1011.2
20210730085214 74 259 1.0 8.0 0.00 0.00 0.00 66 1011.2
20210730085130 74 259 1.0 8.0 0.00 0.00 0.00 66 1011.2
20210730084614 74 200 4.0 7.0 0.00 0.00 0.00 64 1011.2
20210730084529 74 200 4.0 7.0 0.00 0.00 0.00 64 1011.2
20210730084013 74 213 2.0 6.0 0.00 0.00 0.00 66 1011.2
20210730083928 73 220 3.0 7.0 0.00 0.00 0.00 67 1011.1
20210730083414 73 144 1.0 4.0 0.00 0.00 0.00 69 1011.1
20210730083327 73 144 1.0 4.0 0.00 0.00 0.00 69 1011.1
20210730082813 72 251 2.0 5.0 0.00 0.00 0.00 71 1011.2
20210730082214 72 140 2.0 5.0 0.00 0.00 0.00 71 1011.2
20210730082128 72 140 2.0 5.0 0.00 0.00 0.00 71 1011.2
20210730081613 71 211 4.0 6.0 0.00 0.00 0.00 69 1011.3
20210730081530 71 211 4.0 6.0 0.00 0.00 0.00 69 1011.3
20210730081014 71 262 2.0 4.0 0.00 0.00 0.00 72 1011.4
20210730080927 70 224 4.0 7.0 0.00 0.00 0.00 73 1011.5
20210730080414 70 188 2.0 4.0 0.00 0.00 0.00 73 1011.6
20210730080327 70 188 2.0 4.0 0.00 0.00 0.00 73 1011.6
20210730075814 69 223 2.0 5.0 0.00 0.00 0.00 75 1011.5
20210730075728 69 223 2.0 5.0 0.00 0.00 0.00 75 1011.5
20210730075214 69 192 3.0 5.0 0.00 0.00 0.00 75 1011.6
20210730075128 69 192 3.0 5.0 0.00 0.00 0.00 75 1011.6
20210730074614 69 252 3.0 6.0 0.00 0.00 0.00 76 1011.6
20210730074528 69 252 3.0 6.0 0.00 0.00 0.00 76 1011.6
20210730074014 68 240 4.0 5.0 0.00 0.00 0.00 76 1011.6
20210730073414 68 216 2.0 4.0 0.00 0.00 0.00 78 1011.7
20210730073329 68 216 2.0 4.0 0.00 0.00 0.00 78 1011.7
20210730072814 67 221 0.0 3.0 0.00 0.00 0.00 80 1011.7
20210730072727 67 221 0.0 3.0 0.00 0.00 0.00 80 1011.7
20210730072213 67 221 2.0 5.0 0.00 0.00 0.00 80 1011.8
20210730071613 67 288 1.0 2.0 0.00 0.00 0.00 82 1011.9
20210730071528 67 288 1.0 2.0 0.00 0.00 0.00 82 1011.9
20210730071014 66 292 1.0 3.0 0.00 0.00 0.00 83 1012.0
20210730070930 66 292 2.0 3.0 0.00 0.00 0.00 83 1011.9
20210730070413 66 292 1.0 4.0 0.00 0.00 0.00 83 1011.9
20210730070328 66 292 1.0 4.0 0.00 0.00 0.00 83 1011.9
20210730065814 65 360 1.0 2.0 0.00 0.00 0.00 83 1011.9
20210730065727 65 360 1.0 2.0 0.00 0.00 0.00 83 1011.9
20210730065214 65 360 1.0 2.0 0.00 0.00 0.00 85 1011.9
20210730065130 65 360 1.0 2.0 0.00 0.00 0.00 85 1011.9
20210730064614 64 360 0.0 3.0 0.00 0.00 0.00 85 1011.9
20210730064531 64 360 0.0 3.0 0.00 0.00 0.00 85 1011.9
20210730064013 64 17 0.0 2.0 0.00 0.00 0.00 86 1011.8
20210730063928 63 17 1.0 4.0 0.00 0.00 0.00 86 1011.8
20210730063413 63 17 1.0 2.0 0.00 0.00 0.00 86 1011.8
20210730063328 63 17 1.0 2.0 0.00 0.00 0.00 86 1011.8
20210730062813 62 19 1.0 2.0 0.00 0.00 0.00 89 1011.8
20210730062728 62 19 1.0 2.0 0.00 0.00 0.00 89 1011.8
20210730062213 62 19 0.0 2.0 0.00 0.00 0.00 88 1011.8
20210730062128 62 19 0.0 2.0 0.00 0.00 0.00 88 1011.8
20210730061614 61 19 1.0 3.0 0.00 0.00 0.00 90 1011.9
20210730061014 61 19 2.0 4.0 0.00 0.00 0.00 91 1012.0
20210730060927 60 126 1.0 2.0 0.00 0.00 0.00 91 1012.0
20210730060413 60 126 2.0 4.0 0.00 0.00 0.00 92 1012.0
20210730055813 59 127 2.0 4.0 0.00 0.00 0.00 93 1012.0
20210730055728 59 127 2.0 4.0 0.00 0.00 0.00 93 1012.0
20210730055213 59 127 1.0 2.0 0.00 0.00 0.00 94 1012.0
20210730055129 59 127 1.0 2.0 0.00 0.00 0.00 94 1012.0
20210730054613 58 127 1.0 2.0 0.00 0.00 0.00 94 1012.1
20210730054531 58 127 1.0 2.0 0.00 0.00 0.00 94 1012.1
20210730054013 58 127 2.0 3.0 0.00 0.00 0.00 94 1012.2
20210730053929 57 127 0.0 3.0 0.00 0.00 0.00 94 1012.1
20210730053413 56 127 1.0 4.0 0.00 0.00 0.00 94 1012.0
20210730052814 56 127 0.0 0.0 0.00 0.00 0.00 94 1012.0
20210730052214 56 127 0.0 0.0 0.00 0.00 0.00 94 1012.1
20210730052131 56 127 0.0 0.0 0.00 0.00 0.00 94 1012.1
20210730051613 56 127 0.0 0.0 0.00 0.00 0.00 94 1012.1
20210730051013 55 127 0.0 0.0 0.00 0.00 0.00 94 1012.2
20210730050927 55 127 0.0 0.0 0.00 0.00 0.00 94 1012.1
20210730050414 55 127 0.0 0.0 0.00 0.00 0.00 94 1012.0
20210730050328 55 127 0.0 0.0 0.00 0.00 0.00 94 1012.0
20210730045814 55 127 0.0 0.0 0.00 0.00 0.00 94 1012.0
20210730045727 55 127 0.0 0.0 0.00 0.00 0.00 94 1012.0
20210730045214 55 127 0.0 3.0 0.00 0.00 0.00 94 1012.0
20210730045127 55 127 0.0 3.0 0.00 0.00 0.00 94 1012.0
20210730044613 55 127 1.0 3.0 0.00 0.00 0.00 94 1012.0
20210730044527 55 127 1.0 3.0 0.00 0.00 0.00 94 1012.0
20210730044014 55 127 2.0 4.0 0.00 0.00 0.00 94 1012.0
20210730043929 55 127 1.0 3.0 0.00 0.00 0.00 94 1012.0
20210730043413 55 127 2.0 4.0 0.00 0.00 0.00 94 1012.0
20210730043329 55 127 2.0 4.0 0.00 0.00 0.00 94 1012.0
20210730042812 55 127 3.0 5.0 0.00 0.00 0.00 94 1011.9
20210730042727 55 127 3.0 5.0 0.00 0.00 0.00 94 1011.9
20210730042214 55 127 3.0 5.0 0.00 0.00 0.00 94 1012.0
20210730042127 55 127 3.0 5.0 0.00 0.00 0.00 94 1012.0
20210730041612 55 127 1.0 4.0 0.00 0.00 0.00 94 1012.1
20210730041012 55 127 2.0 4.0 0.00 0.00 0.00 94 1012.1
20210730040412 55 126 0.0 0.0 0.00 0.00 0.00 94 1012.3
20210730040327 55 126 0.0 0.0 0.00 0.00 0.00 94 1012.3
20210730035812 54 126 0.0 0.0 0.00 0.00 0.00 94 1012.4
20210730035728 54 126 0.0 0.0 0.00 0.00 0.00 94 1012.4
20210730035212 54 126 0.0 0.0 0.00 0.00 0.00 94 1012.4
20210730035127 54 126 0.0 0.0 0.00 0.00 0.00 94 1012.4
20210730034613 54 126 0.0 0.0 0.00 0.00 0.00 94 1012.4
20210730034527 54 126 0.0 0.0 0.00 0.00 0.00 94 1012.4
20210730034013 54 126 0.0 0.0 0.00 0.00 0.00 94 1012.3
20210730033928 54 126 0.0 0.0 0.00 0.00 0.00 94 1012.3
20210730033412 54 126 0.0 0.0 0.00 0.00 0.00 94 1012.4
20210730033328 54 126 0.0 0.0 0.00 0.00 0.00 94 1012.4
20210730032813 54 126 0.0 0.0 0.00 0.00 0.00 94 1012.3
20210730032727 54 126 0.0 0.0 0.00 0.00 0.00 94 1012.3
20210730032213 54 126 0.0 0.0 0.00 0.00 0.00 94 1012.3
20210730032127 54 126 0.0 0.0 0.00 0.00 0.00 94 1012.3
20210730031612 54 126 0.0 0.0 0.00 0.00 0.00 94 1012.3
20210730031529 54 126 0.0 0.0 0.00 0.00 0.00 94 1012.3
20210730031013 54 126 0.0 0.0 0.00 0.00 0.00 94 1012.3
20210730030932 55 126 0.0 0.0 0.00 0.00 0.00 94 1012.2
20210730030412 55 126 0.0 0.0 0.00 0.00 0.00 93 1012.2
20210730030328 55 126 0.0 0.0 0.00 0.00 0.00 93 1012.2
20210730025813 55 126 0.0 0.0 0.00 0.00 0.00 93 1012.2
20210730025727 55 126 0.0 0.0 0.00 0.00 0.00 93 1012.2
20210730025214 55 126 0.0 0.0 0.00 0.00 0.00 94 1012.1
20210730025128 55 126 0.0 0.0 0.00 0.00 0.00 94 1012.1
20210730024614 55 126 0.0 0.0 0.00 0.00 0.00 94 1012.2
20210730024528 55 126 0.0 0.0 0.00 0.00 0.00 94 1012.2
20210730024013 55 126 0.0 0.0 0.00 0.00 0.00 94 1012.3
20210730023928 55 126 0.0 0.0 0.00 0.00 0.00 94 1012.3
20210730023414 55 126 0.0 0.0 0.00 0.00 0.00 93 1012.4
20210730023328 55 126 0.0 0.0 0.00 0.00 0.00 93 1012.4
20210730022814 56 126 0.0 1.0 0.00 0.00 0.00 94 1012.4
20210730022728 56 126 0.0 1.0 0.00 0.00 0.00 94 1012.4
20210730022213 56 126 1.0 2.0 0.00 0.00 0.00 94 1012.5
20210730022127 56 126 1.0 2.0 0.00 0.00 0.00 94 1012.5
20210730021613 56 126 0.0 4.0 0.00 0.00 0.00 94 1012.4
20210730021527 56 126 0.0 4.0 0.00 0.00 0.00 94 1012.4
20210730021014 56 126 2.0 4.0 0.00 0.00 0.00 94 1012.4
20210730020414 56 126 0.0 0.0 0.00 0.00 0.00 94 1012.5
20210730020328 56 126 0.0 0.0 0.00 0.00 0.00 94 1012.5
20210730015814 56 126 0.0 0.0 0.00 0.00 0.00 94 1012.6
20210730015727 56 126 0.0 0.0 0.00 0.00 0.00 94 1012.6
20210730015214 56 126 0.0 0.0 0.00 0.00 0.00 94 1012.6
20210730015128 56 126 0.0 0.0 0.00 0.00 0.00 94 1012.6
20210730014613 56 126 0.0 0.0 0.00 0.00 0.00 94 1012.5
20210730014527 56 126 0.0 0.0 0.00 0.00 0.00 94 1012.5
20210730014013 56 126 2.0 6.0 0.00 0.00 0.00 94 1012.4
20210730013927 56 149 3.0 5.0 0.00 0.00 0.00 94 1012.3
20210730013413 55 149 1.0 3.0 0.00 0.00 0.00 94 1012.4
20210730013330 55 149 1.0 3.0 0.00 0.00 0.00 94 1012.4
20210730012813 55 149 0.0 0.0 0.00 0.00 0.00 94 1012.5
20210730012727 55 149 0.0 0.0 0.00 0.00 0.00 94 1012.5
20210730012213 55 149 0.0 1.0 0.00 0.00 0.00 94 1012.5
20210730012129 55 149 0.0 1.0 0.00 0.00 0.00 94 1012.5
20210730011614 55 149 0.0 0.0 0.00 0.00 0.00 93 1012.5
20210730011527 55 149 0.0 0.0 0.00 0.00 0.00 93 1012.5
20210730011013 54 149 0.0 0.0 0.00 0.00 0.00 94 1012.4
20210730010929 54 149 0.0 0.0 0.00 0.00 0.00 94 1012.4
20210730010415 54 149 0.0 0.0 0.00 0.00 0.00 93 1012.4
20210730010327 54 149 0.0 0.0 0.00 0.00 0.00 93 1012.4
20210730005813 54 149 0.0 0.0 0.00 0.00 0.00 93 1012.4
20210730005727 54 149 0.0 0.0 0.00 0.00 0.00 93 1012.4
20210730005213 54 149 0.0 0.0 0.00 0.00 0.00 93 1012.4
20210730005130 54 149 0.0 0.0 0.00 0.00 0.00 93 1012.4
20210730004613 54 149 0.0 0.0 0.00 0.00 0.00 93 1012.4
20210730004531 54 149 0.0 0.0 0.00 0.00 0.00 93 1012.4
20210730004014 54 149 0.0 0.0 0.00 0.00 0.00 93 1012.2
20210730003929 54 149 0.0 0.0 0.00 0.00 0.00 93 1012.3
20210730003413 54 149 0.0 0.0 0.00 0.00 0.00 93 1012.3
20210730003328 54 149 0.0 0.0 0.00 0.00 0.00 93 1012.3
20210730002813 55 149 0.0 0.0 0.00 0.00 0.00 93 1012.3
20210730002214 55 149 0.0 0.0 0.00 0.00 0.00 93 1012.3
20210730002128 55 149 0.0 0.0 0.00 0.00 0.00 93 1012.3
20210730001614 55 149 0.0 0.0 0.00 0.00 0.00 93 1012.4
20210730001528 55 149 0.0 0.0 0.00 0.00 0.00 93 1012.4
20210730001014 55 149 0.0 0.0 0.00 0.00 0.00 93 1012.4
20210730000927 55 149 1.0 2.0 0.00 0.00 0.00 93 1012.4
20210730000417 55 149 1.0 2.0 0.00 0.00 0.00 93 1012.5
20210730000415 55 149 1.0 2.0 0.00 0.00 0.00 93 1012.5
20210730000334 55 149 1.0 2.0 0.00 0.00 0.00 93 1012.5
20210729235813 55 149 1.0 4.0 0.00 0.00 0.00 92 1012.5
20210729235214 55 149 0.0 0.0 0.00 0.00 0.00 92 1012.5
20210729235127 55 149 0.0 0.0 0.00 0.00 0.00 92 1012.5
20210729234614 56 149 0.0 0.0 0.00 0.00 0.00 92 1012.6
20210729234527 56 149 0.0 0.0 0.00 0.00 0.00 92 1012.6
20210729234013 56 149 0.0 0.0 0.00 0.00 0.00 92 1012.5
20210729233927 56 149 0.0 0.0 0.00 0.00 0.00 92 1012.5
20210729233413 56 149 0.0 0.0 0.00 0.00 0.00 92 1012.5
20210729233328 56 149 0.0 0.0 0.00 0.00 0.00 92 1012.5
20210729232813 56 149 0.0 0.0 0.00 0.00 0.00 92 1012.5
20210729232728 56 149 0.0 0.0 0.00 0.00 0.00 92 1012.5
20210729232214 56 149 0.0 0.0 0.00 0.00 0.00 92 1012.5
20210729232128 56 149 0.0 0.0 0.00 0.00 0.00 92 1012.5
20210729231614 56 149 0.0 0.0 0.00 0.00 0.00 92 1012.5
20210729231527 56 149 0.0 0.0 0.00 0.00 0.00 92 1012.5
20210729231013 56 149 0.0 0.0 0.00 0.00 0.00 92 1012.5
20210729230929 56 149 0.0 0.0 0.00 0.00 0.00 92 1012.5
20210729230414 56 149 0.0 1.0 0.00 0.00 0.00 92 1012.5
20210729230329 56 149 0.0 1.0 0.00 0.00 0.00 92 1012.5
20210729225813 57 149 0.0 0.0 0.00 0.00 0.00 92 1012.5
20210729225730 57 149 0.0 0.0 0.00 0.00 0.00 92 1012.5
20210729225214 57 149 0.0 0.0 0.00 0.00 0.00 92 1012.4
20210729225127 57 149 0.0 0.0 0.00 0.00 0.00 92 1012.4
20210729224613 57 149 0.0 0.0 0.00 0.00 0.00 92 1012.5
20210729224528 57 149 0.0 0.0 0.00 0.00 0.00 92 1012.5
20210729224013 57 149 0.0 0.0 0.00 0.00 0.00 91 1012.6
20210729223927 57 149 0.0 0.0 0.00 0.00 0.00 91 1012.6
20210729223413 57 149 0.0 0.0 0.00 0.00 0.00 91 1012.6
20210729222814 57 149 0.0 0.0 0.00 0.00 0.00 91 1012.5
20210729222729 57 149 0.0 0.0 0.00 0.00 0.00 91 1012.5
20210729222213 58 149 0.0 0.0 0.00 0.00 0.00 91 1012.5
20210729222132 58 149 0.0 0.0 0.00 0.00 0.00 91 1012.5
20210729221613 58 254 0.0 1.0 0.00 0.00 0.00 91 1012.6
20210729221529 58 254 0.0 1.0 0.00 0.00 0.00 91 1012.6
20210729221014 58 254 0.0 1.0 0.00 0.00 0.00 91 1012.5
20210729220930 58 254 0.0 1.0 0.00 0.00 0.00 91 1012.6
20210729220414 58 254 0.0 0.0 0.00 0.00 0.00 91 1012.5
20210729220328 58 254 0.0 0.0 0.00 0.00 0.00 91 1012.5
20210729215814 58 254 0.0 0.0 0.00 0.00 0.00 91 1012.5
20210729215727 58 254 0.0 0.0 0.00 0.00 0.00 91 1012.5
20210729215213 58 254 0.0 1.0 0.00 0.00 0.00 90 1012.6
20210729215129 58 254 0.0 1.0 0.00 0.00 0.00 90 1012.6
20210729214614 58 254 0.0 1.0 0.00 0.00 0.00 91 1012.6
20210729214014 58 254 0.0 1.0 0.00 0.00 0.00 90 1012.5
20210729213927 58 254 0.0 0.0 0.00 0.00 0.00 90 1012.6
20210729213414 59 254 0.0 0.0 0.00 0.00 0.00 90 1012.5
20210729212813 59 254 0.0 0.0 0.00 0.00 0.00 90 1012.6
20210729212728 59 254 0.0 0.0 0.00 0.00 0.00 90 1012.6
20210729212214 59 254 0.0 0.0 0.00 0.00 0.00 89 1012.5
20210729212130 59 254 0.0 0.0 0.00 0.00 0.00 89 1012.5
20210729211613 59 254 0.0 0.0 0.00 0.00 0.00 89 1012.5
20210729211528 59 254 0.0 0.0 0.00 0.00 0.00 89 1012.5
20210729211014 59 254 0.0 0.0 0.00 0.00 0.00 89 1012.5
20210729210928 60 254 0.0 0.0 0.00 0.00 0.00 89 1012.6
20210729210414 60 254 0.0 0.0 0.00 0.00 0.00 88 1012.6
20210729210328 60 254 0.0 0.0 0.00 0.00 0.00 88 1012.6
20210729205813 60 254 0.0 0.0 0.00 0.00 0.00 88 1012.5
20210729205729 60 254 0.0 0.0 0.00 0.00 0.00 88 1012.5
20210729205213 60 254 0.0 0.0 0.00 0.00 0.00 88 1012.5
20210729205127 60 254 0.0 0.0 0.00 0.00 0.00 88 1012.5
20210729204614 60 254 0.0 0.0 0.00 0.00 0.00 87 1012.6
20210729204527 60 254 0.0 0.0 0.00 0.00 0.00 87 1012.6
20210729204014 61 254 0.0 0.0 0.00 0.00 0.00 86 1012.5
20210729203927 61 254 0.0 0.0 0.00 0.00 0.00 86 1012.5
20210729203414 62 254 0.0 1.0 0.00 0.00 0.00 86 1012.5
20210729203328 62 254 0.0 1.0 0.00 0.00 0.00 86 1012.5
20210729202812 62 254 0.0 1.0 0.00 0.00 0.00 85 1012.5
20210729202727 62 254 0.0 1.0 0.00 0.00 0.00 85 1012.5
20210729202214 62 254 1.0 2.0 0.00 0.00 0.00 85 1012.5
20210729202127 62 254 1.0 2.0 0.00 0.00 0.00 85 1012.5
20210729201613 63 254 2.0 2.0 0.00 0.00 0.00 85 1012.5
20210729201527 63 254 2.0 2.0 0.00 0.00 0.00 85 1012.5
20210729201015 63 254 1.0 2.0 0.00 0.00 0.00 84 1012.5
20210729200928 63 254 1.0 2.0 0.00 0.00 0.00 84 1012.5
20210729200414 63 254 1.0 2.0 0.00 0.00 0.00 83 1012.5
20210729200328 63 254 1.0 2.0 0.00 0.00 0.00 83 1012.5
20210729195813 64 254 1.0 2.0 0.00 0.00 0.00 82 1012.5
20210729195728 64 254 1.0 2.0 0.00 0.00 0.00 82 1012.5
20210729195213 64 254 1.0 3.0 0.00 0.00 0.00 81 1012.5
20210729195127 64 254 1.0 3.0 0.00 0.00 0.00 81 1012.5
20210729194613 65 254 0.0 3.0 0.00 0.00 0.00 81 1012.5
20210729194528 65 254 0.0 3.0 0.00 0.00 0.00 81 1012.5
20210729194013 65 254 2.0 3.0 0.00 0.00 0.00 80 1012.5
20210729193929 65 254 0.0 2.0 0.00 0.00 0.00 78 1012.4
20210729193413 65 254 1.0 2.0 0.00 0.00 0.00 77 1012.4
20210729193327 65 254 1.0 2.0 0.00 0.00 0.00 77 1012.4
20210729192813 66 254 2.0 2.0 0.00 0.00 0.00 76 1012.4
20210729192727 66 254 2.0 2.0 0.00 0.00 0.00 76 1012.4
20210729192214 66 254 1.0 2.0 0.00 0.00 0.00 74 1012.2
20210729192128 66 254 1.0 2.0 0.00 0.00 0.00 74 1012.2
20210729191614 67 254 0.0 1.0 0.00 0.00 0.00 74 1012.1
20210729191527 67 254 0.0 1.0 0.00 0.00 0.00 74 1012.1
20210729191013 67 254 0.0 1.0 0.00 0.00 0.00 72 1012.0
20210729190413 69 254 0.0 2.0 0.00 0.00 0.00 70 1012.0
20210729190327 69 254 0.0 2.0 0.00 0.00 0.00 70 1012.0
20210729185814 69 254 0.0 2.0 0.00 0.00 0.00 69 1011.9
20210729185728 69 254 0.0 2.0 0.00 0.00 0.00 69 1011.9
20210729185213 69 254 2.0 2.0 0.00 0.00 0.00 68 1011.9
20210729185128 69 254 2.0 2.0 0.00 0.00 0.00 68 1011.9
20210729184614 70 254 1.0 3.0 0.00 0.00 0.00 68 1011.9
20210729184528 70 254 1.0 3.0 0.00 0.00 0.00 68 1011.9
20210729184014 70 254 2.0 3.0 0.00 0.00 0.00 68 1011.8
20210729183928 70 254 1.0 3.0 0.00 0.00 0.00 67 1011.8
20210729183414 71 254 1.0 2.0 0.00 0.00 0.00 67 1011.8
20210729183329 71 254 1.0 2.0 0.00 0.00 0.00 67 1011.8
20210729182813 71 254 2.0 4.0 0.00 0.00 0.00 64 1011.9
20210729182728 71 254 2.0 4.0 0.00 0.00 0.00 64 1011.9
20210729182213 71 254 1.0 3.0 0.00 0.00 0.00 64 1011.8
20210729182130 71 254 1.0 3.0 0.00 0.00 0.00 64 1011.8
20210729181614 72 254 1.0 4.0 0.00 0.00 0.00 63 1011.8
20210729181528 72 254 1.0 4.0 0.00 0.00 0.00 63 1011.8
20210729181014 72 254 2.0 3.0 0.00 0.00 0.00 62 1011.8
20210729180928 72 254 1.0 3.0 0.00 0.00 0.00 61 1011.8
20210729180414 73 254 2.0 2.0 0.00 0.00 0.00 60 1011.9
20210729180328 73 254 2.0 2.0 0.00 0.00 0.00 60 1011.9
20210729175814 73 254 1.0 5.0 0.00 0.00 0.00 60 1011.9
20210729175731 73 254 1.0 5.0 0.00 0.00 0.00 60 1011.9
20210729175214 73 253 3.0 5.0 0.00 0.00 0.00 59 1011.9
20210729175130 73 253 3.0 5.0 0.00 0.00 0.00 59 1011.9
20210729174613 73 252 2.0 5.0 0.00 0.00 0.00 58 1011.8
20210729174529 73 252 2.0 5.0 0.00 0.00 0.00 58 1011.8
20210729174014 74 265 4.0 6.0 0.00 0.00 0.00 58 1011.9
20210729173414 74 216 4.0 6.0 0.00 0.00 0.00 56 1011.9
20210729173330 74 216 4.0 6.0 0.00 0.00 0.00 56 1011.9
20210729172814 74 244 2.0 7.0 0.00 0.00 0.00 55 1011.9
20210729172728 74 244 2.0 7.0 0.00 0.00 0.00 55 1011.9
20210729172214 74 273 3.0 6.0 0.00 0.00 0.00 55 1011.9
20210729172129 74 273 3.0 6.0 0.00 0.00 0.00 55 1011.9
20210729171614 75 249 4.0 7.0 0.00 0.00 0.00 56 1011.9
20210729171529 75 249 4.0 7.0 0.00 0.00 0.00 56 1011.9
20210729171013 75 246 4.0 7.0 0.00 0.00 0.00 54 1011.9
20210729170413 75 255 4.0 7.0 0.00 0.00 0.00 54 1011.9
20210729170329 75 255 4.0 7.0 0.00 0.00 0.00 54 1011.9
20210729165813 76 257 5.0 7.0 0.00 0.00 0.00 53 1011.9
20210729165730 76 257 5.0 7.0 0.00 0.00 0.00 53 1011.9
20210729165213 76 194 3.0 6.0 0.00 0.00 0.00 54 1011.9
20210729165131 76 194 3.0 6.0 0.00 0.00 0.00 54 1011.9
20210729164613 76 272 2.0 8.0 0.00 0.00 0.00 53 1011.9
20210729164014 76 254 3.0 9.0 0.00 0.00 0.00 53 1011.9
20210729163928 76 287 5.0 10.0 0.00 0.00 0.00 53 1012.0
20210729163413 76 254 4.0 7.0 0.00 0.00 0.00 53 1012.0
20210729163329 76 254 4.0 7.0 0.00 0.00 0.00 53 1012.0
20210729162813 76 256 1.0 7.0 0.00 0.00 0.00 53 1012.0
20210729162214 76 271 7.0 11.0 0.00 0.00 0.00 52 1012.1
20210729162128 76 271 7.0 11.0 0.00 0.00 0.00 52 1012.1
20210729161613 76 241 6.0 10.0 0.00 0.00 0.00 53 1012.1
20210729161531 76 241 6.0 10.0 0.00 0.00 0.00 53 1012.1
20210729161013 76 248 8.0 12.0 0.00 0.00 0.00 52 1012.2
20210729160929 76 255 7.0 9.0 0.00 0.00 0.00 52 1012.1
20210729160413 76 257 4.0 9.0 0.00 0.00 0.00 52 1012.2
20210729160328 76 257 4.0 9.0 0.00 0.00 0.00 52 1012.2
20210729155814 76 269 5.0 9.0 0.00 0.00 0.00 52 1012.2
20210729155728 76 269 5.0 9.0 0.00 0.00 0.00 52 1012.2
20210729155213 76 248 5.0 8.0 0.00 0.00 0.00 53 1012.3
20210729155132 76 248 5.0 8.0 0.00 0.00 0.00 53 1012.3
20210729154614 76 261 3.0 10.0 0.00 0.00 0.00 51 1012.4
20210729154529 76 261 3.0 10.0 0.00 0.00 0.00 51 1012.4
20210729154014 76 263 6.0 12.0 0.00 0.00 0.00 51 1012.4
20210729153929 77 246 6.0 10.0 0.00 0.00 0.00 53 1012.4
20210729153415 77 264 6.0 12.0 0.00 0.00 0.00 52 1012.5
20210729153327 77 264 6.0 12.0 0.00 0.00 0.00 52 1012.5
20210729152814 76 250 4.0 12.0 0.00 0.00 0.00 54 1012.5
20210729152728 76 250 4.0 12.0 0.00 0.00 0.00 54 1012.5
20210729152214 76 244 8.0 12.0 0.00 0.00 0.00 52 1012.5
20210729152128 76 244 8.0 12.0 0.00 0.00 0.00 52 1012.5
20210729151614 76 248 5.0 9.0 0.00 0.00 0.00 53 1012.6
20210729151528 76 248 5.0 9.0 0.00 0.00 0.00 53 1012.6
20210729151014 77 211 5.0 9.0 0.00 0.00 0.00 52 1012.6
20210729150928 77 252 7.0 13.0 0.00 0.00 0.00 50 1012.7
20210729150415 77 289 5.0 12.0 0.00 0.00 0.00 50 1012.7
20210729150328 77 289 5.0 12.0 0.00 0.00 0.00 50 1012.7
20210729145814 77 264 3.0 8.0 0.00 0.00 0.00 52 1012.7
20210729145213 77 278 5.0 9.0 0.00 0.00 0.00 52 1012.7
20210729145128 77 278 5.0 9.0 0.00 0.00 0.00 52 1012.7
20210729144739 78 279 8.0 12.0 0.00 0.00 0.00 52 1012.7
20210729144614 78 279 8.0 12.0 0.00 0.00 0.00 52 1012.7
20210729144527 78 279 8.0 12.0 0.00 0.00 0.00 52 1012.7
20210729144014 78 282 7.0 10.0 0.00 0.00 0.00 52 1012.7
20210729143932 78 234 7.0 14.0 0.00 0.00 0.00 52 1012.7
20210729143413 78 244 6.0 8.0 0.00 0.00 0.00 53 1012.8
20210729143329 78 244 6.0 8.0 0.00 0.00 0.00 53 1012.8
20210729142813 78 250 3.0 9.0 0.00 0.00 0.00 53 1012.8
20210729142727 78 250 3.0 9.0 0.00 0.00 0.00 53 1012.8
20210729142214 77 257 7.0 12.0 0.00 0.00 0.00 51 1012.8
20210729142130 77 257 7.0 12.0 0.00 0.00 0.00 51 1012.8
20210729141614 77 277 5.0 9.0 0.00 0.00 0.00 51 1012.9
20210729141528 77 277 5.0 9.0 0.00 0.00 0.00 51 1012.9
20210729141014 77 271 6.0 10.0 0.00 0.00 0.00 50 1012.9
20210729141009 77 284 4.0 14.0 0.00 0.00 0.00 52 1013.0
20210729140928 77 284 4.0 14.0 0.00 0.00 0.00 52 1013.0